This demonstration page uses our WeatherBlox Daily Observations layout. Learn more.

Left ArrowRight Arrow

34.74481, -87.66753

Hourly Observations for May 24, 2022

Temp ( °F °C ) Dew Point ( °F °C ) Humidity (%) Winds ( mph kmh ) Pressure ( in mb ) Visibility ( mi km ) Precip ( " mm )
12:53 am 00:53 Partly Cloudy 66 18.9 62 16.7 87 87 ENE 5 7 30.03 1017 10 16 0.00 0.00
1:13 am 01:13 Mostly Cloudy 66 18.9 62 16.7 87 87 E 3 6 30.04 1017 10 16 0.00 0.00
1:37 am 01:37 Cloudy 67 19.4 62 16.7 84 84 E 3 6 30.04 1017 10 16 0.00 0.00
1:53 am 01:53 Cloudy 66 18.9 62 16.7 87 87 E 5 7 30.03 1017 10 16 0.00 0.00
2:17 am 02:17 Partly Cloudy 65 18.3 61 16.1 87 87 E 7 11 30.03 1017 10 16 0.00 0.00
2:26 am 02:26 Mostly Cloudy 65 18.3 61 16.1 87 87 E 5 7 30.02 1017 10 16 0.00 0.00
2:53 am 02:53 Cloudy 65 18.3 61 16.1 87 87 E 6 9 30.00 1016 10 16 0.00 0.00
3:46 am 03:46 Cloudy 65 18.3 62 16.7 90 90 SE 5 7 30.02 1017 10 16 0.00 0.00
3:53 am 03:53 Cloudy 65 18.3 62 16.7 90 90 E 7 11 30.01 1016 10 16 0.00 0.00
4:53 am 04:53 Cloudy 65 18.3 62 16.7 90 90 E 7 11 30.01 1016 9 14 0.00 0.00
5:53 am 05:53 Cloudy 65 18.3 62 16.7 90 90 NE 7 11 30.03 1017 9 14 0.00 0.00
6:53 am 06:53 Cloudy 65 18.3 62 16.7 90 90 E 6 9 30.05 1018 8 13 0.00 0.00
7:53 am 07:53 Cloudy 67 19.4 63 17.2 87 87 ENE 7 11 30.05 1018 9 14 0.00 0.00
8:53 am 08:53 Cloudy 69 20.6 64 17.8 84 84 ENE 8 13 30.03 1017 10 16 0.00 0.00
9:05 am 09:05 Cloudy 70 21.1 64 17.8 82 82 E 10 17 30.04 1017 10 16 0.00 0.00
9:53 am 09:53 Cloudy 71 21.7 65 18.3 81 81 ESE 8 13 30.03 1017 10 16 0.00 0.00
10:53 am 10:53 Mostly Cloudy 76 24.4 67 19.4 74 74 ESE 8 13 30.01 1016 10 16 0.00 0.00
11:53 am 11:53 Cloudy 79 26.1 67 19.4 67 67 SE 9 15 29.99 1016 10 16 0.00 0.00
12:30 pm 12:30 Cloudy with Heavy Rain 75 23.9 68 20 79 79 S 14 22 29.99 1016 2 3 0.06 1.52
12:51 pm 12:51 Cloudy with Light Rain 72 22 68 20 88 88 S 12 19 29.99 1016 3 5 0.23 5.84
12:53 pm 12:53 Cloudy with Light Rain 72 22.2 68 20 87 87 S 12 19 30.00 1016 7 11 0.23 5.84
1:13 pm 13:13 Cloudy with Rain 71 21.7 68 20 90 90 S 10 17 29.99 1016 3 4 0.04 1.02
1:21 pm 13:21 Cloudy with Light Rain 71 21.7 68 20 90 90 S 16 26 29.99 1016 5 8 0.05 1.27
1:53 pm 13:53 Cloudy with Light Rain 71 21.7 68 20 90 90 S 8 13 29.98 1015 9 14 0.07 1.78
2:42 pm 14:42 Cloudy with Light Rain 75 23.9 70 21.1 84 84 SSE 7 11 29.95 1014 10 16 0.00 0.00
2:53 pm 14:53 Cloudy with Light Rain 76 24.4 70 21.1 82 82 SSE 9 15 29.95 1014 10 16 0.00 0.00
3:44 pm 15:44 Mostly Cloudy with Light Rain 78 25.6 69 20.6 74 74 S 12 19 29.93 1013 10 16 0.00 0.00
3:53 pm 15:53 Mostly Cloudy with Light Rain 78 25.6 69 20.6 74 74 SE 9 15 29.93 1014 10 16 0.00 0.00
4:39 pm 16:39 Mostly Cloudy with Light Rain 79 26.1 69 20.6 72 72 SE 12 19 29.93 1013 10 16 0.00 0.00
4:53 pm 16:53 Partly Cloudy with Light Rain 78 25.6 69 20.6 74 74 SSE 12 19 29.94 1014 10 16 0.00 0.00
5:53 pm 17:53 Partly Cloudy with Light Rain 78 25.6 69 20.6 74 74 SSE 8 13 29.93 1014 10 16 0.00 0.00
6:51 pm 18:51 Mostly Cloudy with Nearby Thunderstorms 77 25 70 21 79 79 SE 8 13 29.93 1013 10 16 0.00 0.00
6:53 pm 18:53 Mostly Cloudy with Nearby Thunderstorms 77 25 70 21.1 79 79 S 22 35 29.96 1015 4 6 0.04 1.02
6:55 pm 18:55 Windy with Storms Likely 75 23.9 69 20.6 82 82 S 26 43 29.97 1015 2 2 0.05 1.27
7:08 pm 19:08 Mostly Cloudy with Thunderstorms 68 20 65 18.3 90 90 SSE 18 30 29.98 1015 3 5 0.14 3.56
7:31 pm 19:31 Cloudy with Nearby Thunderstorms 69 20.6 65 18.3 87 87 S 8 13 29.97 1015 10 16 0.14 3.56
7:45 pm 19:45 Cloudy 69 20.6 66 18.9 90 90 SSE 6 9 29.97 1015 10 16 0.14 3.56
7:53 pm 19:53 Cloudy with Light Rain 69 20.6 66 18.9 90 90 SSE 6 9 29.96 1015 10 16 0.14 3.56
8:53 pm 20:53 Mostly Cloudy 69 20.6 66 18.9 90 90 SE 5 7 29.98 1015 10 16 0.06 1.52
9:53 pm 21:53 Cloudy 69 20.6 67 19.4 93 93 SW 5 7 30.00 1016 7 11 0.01 0.25
10:53 pm 22:53 Cloudy 69 20.6 66 18.9 90 90 NW 3 6 30.00 1016 10 16 0.06 1.52
11:53 pm 23:53 Mostly Cloudy 68 20 66 18.9 93 93 E 5 7 29.98 1015 10 16 0.00 0.00

Powered by AerisWeather